EJA81 KVNY-KOTH

Flight info

Callsign EJA81
Flight time 1h 32m
Altitude 35000
Route WLKKR5 COREZ RETOP MCC BEIRA CONLI
Aircraft C750/M-SBDE3FGHRWXY/S

Departure

Time 2026-05-09 14:24
Airport Van Nuys Airport (KVNY)

Arrival

Time 2026-05-09 15:57
Airport Southwest Oregon Regional Airport (KOTH)
Time Latitude Longitude Altitude Speed Heading
2026-05-09 14:02 34.20348 -118.49148 757 ft 0 kts 215°
2026-05-09 14:12 34.20349 -118.49147 767 ft 2 kts 215°
2026-05-09 14:12 34.20359 -118.49139 767 ft 0 kts 215°
2026-05-09 14:16 34.20354 -118.49136 767 ft 1 kts 147°
2026-05-09 14:16 34.20354 -118.49133 767 ft 0 kts 114°
2026-05-09 14:17 34.20353 -118.49130 767 ft 2 kts 103°
2026-05-09 14:17 34.20375 -118.49108 768 ft 8 kts 12°
2026-05-09 14:17 34.20445 -118.49109 772 ft 13 kts 357°
2026-05-09 14:17 34.20559 -118.49118 776 ft 19 kts 356°
2026-05-09 14:18 34.20696 -118.49130 781 ft 21 kts 358°
2026-05-09 14:18 34.20859 -118.49146 788 ft 27 kts 353°
2026-05-09 14:18 34.21041 -118.49162 788 ft 23 kts 359°
2026-05-09 14:18 34.21174 -118.49176 791 ft 22 kts 354°
2026-05-09 14:19 34.21350 -118.49192 792 ft 29 kts 355°
2026-05-09 14:19 34.21550 -118.49217 795 ft 24 kts 353°
2026-05-09 14:19 34.21704 -118.49230 801 ft 23 kts 359°
2026-05-09 14:19 34.21834 -118.49238 804 ft 11 kts 357°
2026-05-09 14:20 34.21857 -118.49234 805 ft 0 kts 26°
2026-05-09 14:20 34.21859 -118.49233 805 ft 0 kts 26°
2026-05-09 14:23 34.21868 -118.49224 805 ft 4 kts 50°
2026-05-09 14:23 34.21876 -118.49150 805 ft 14 kts 97°
2026-05-09 14:23 34.21753 -118.49112 802 ft 37 kts 174°
2026-05-09 14:24 34.21146 -118.49052 791 ft 131 kts 177°
2026-05-09 14:24 34.20475 -118.48998 887 ft 151 kts 176°
2026-05-09 14:24 34.19395 -118.48914 1379 ft 162 kts 175°
2026-05-09 14:24 34.18249 -118.48890 1977 ft 168 kts 189°
2026-05-09 14:25 34.17199 -118.49488 2637 ft 170 kts 218°
2026-05-09 14:25 34.16352 -118.50497 3310 ft 171 kts 227°
2026-05-09 14:25 34.15469 -118.51553 3745 ft 189 kts 225°
2026-05-09 14:25 34.14468 -118.52748 4066 ft 214 kts 226°
2026-05-09 14:26 34.13605 -118.54215 4604 ft 218 kts 254°
2026-05-09 14:26 34.13720 -118.56013 5126 ft 225 kts 291°
2026-05-09 14:26 34.14760 -118.57538 5305 ft 252 kts 328°
2026-05-09 14:26 34.16398 -118.58192 6288 ft 247 kts 347°
2026-05-09 14:27 34.18109 -118.58577 7075 ft 253 kts 349°
2026-05-09 14:27 34.19819 -118.59011 7924 ft 256 kts 346°
2026-05-09 14:27 34.21574 -118.59516 8853 ft 260 kts 346°
2026-05-09 14:27 34.23351 -118.60019 9743 ft 264 kts 346°
2026-05-09 14:28 34.25168 -118.60516 10514 ft 268 kts 346°
2026-05-09 14:28 34.27043 -118.61032 10902 ft 289 kts 346°
2026-05-09 14:28 34.29069 -118.61739 11007 ft 317 kts 341°
2026-05-09 14:28 34.31203 -118.62520 11693 ft 320 kts 343°
2026-05-09 14:29 34.33323 -118.63252 12506 ft 322 kts 343°
2026-05-09 14:29 34.35484 -118.64035 13208 ft 327 kts 342°
2026-05-09 14:29 34.37652 -118.64884 13925 ft 330 kts 339°
2026-05-09 14:29 34.39792 -118.65977 14562 ft 333 kts 336°
2026-05-09 14:30 34.41929 -118.67055 15262 ft 334 kts 337°
2026-05-09 14:30 34.44017 -118.68344 15853 ft 338 kts 329°
2026-05-09 14:30 34.46043 -118.69806 16568 ft 340 kts 329°
2026-05-09 14:30 34.48094 -118.71256 17277 ft 343 kts 329°
2026-05-09 14:31 34.50171 -118.72707 17996 ft 346 kts 329°
2026-05-09 14:31 34.52233 -118.74160 18664 ft 349 kts 329°
2026-05-09 14:31 34.54363 -118.75674 19331 ft 352 kts 329°
2026-05-09 14:31 34.56483 -118.77178 20011 ft 355 kts 329°
2026-05-09 14:32 34.58628 -118.78692 20685 ft 359 kts 329°
2026-05-09 14:32 34.60800 -118.80228 21367 ft 362 kts 329°
2026-05-09 14:32 34.62995 -118.81783 22022 ft 366 kts 329°
2026-05-09 14:32 34.65204 -118.83349 22739 ft 369 kts 329°
2026-05-09 14:33 34.67402 -118.84907 23411 ft 373 kts 329°
2026-05-09 14:33 34.69655 -118.86506 24010 ft 376 kts 329°
2026-05-09 14:33 34.71912 -118.88109 24657 ft 377 kts 329°
2026-05-09 14:33 34.74181 -118.89721 25286 ft 379 kts 329°
2026-05-09 14:34 34.76467 -118.91347 25911 ft 381 kts 329°
2026-05-09 14:34 34.78765 -118.92982 26529 ft 383 kts 329°
2026-05-09 14:34 34.81066 -118.94620 27141 ft 385 kts 329°
2026-05-09 14:34 34.83390 -118.96279 27749 ft 387 kts 329°
2026-05-09 14:35 34.85719 -118.97945 28341 ft 390 kts 329°
2026-05-09 14:35 34.88047 -118.99609 28973 ft 392 kts 329°
2026-05-09 14:35 34.90404 -119.01294 29609 ft 395 kts 329°
2026-05-09 14:35 34.92779 -119.02994 30203 ft 397 kts 328°
2026-05-09 14:36 34.95165 -119.04703 30717 ft 399 kts 328°
2026-05-09 14:36 34.97569 -119.06426 31223 ft 402 kts 328°
2026-05-09 14:36 34.99992 -119.08163 31752 ft 405 kts 329°
2026-05-09 14:36 35.02431 -119.09911 32271 ft 408 kts 329°
2026-05-09 14:37 35.04884 -119.11671 32788 ft 410 kts 329°
2026-05-09 14:37 35.07365 -119.13452 33284 ft 413 kts 329°
2026-05-09 14:37 35.09841 -119.15231 33784 ft 416 kts 329°
2026-05-09 14:37 35.12335 -119.17024 34237 ft 418 kts 329°
2026-05-09 14:38 35.14828 -119.18817 34657 ft 420 kts 328°
2026-05-09 14:38 35.17355 -119.20637 35036 ft 424 kts 328°
2026-05-09 14:38 35.19976 -119.22527 35014 ft 438 kts 328°
2026-05-09 14:38 35.22637 -119.24446 35031 ft 450 kts 328°
2026-05-09 14:39 35.25337 -119.26394 35032 ft 461 kts 328°
2026-05-09 14:39 35.28112 -119.28397 35033 ft 468 kts 328°
2026-05-09 14:39 35.33790 -119.32503 35032 ft 479 kts 328°
2026-05-09 14:40 35.39573 -119.36692 35031 ft 485 kts 328°
2026-05-09 14:40 35.45418 -119.40933 35021 ft 489 kts 328°
2026-05-09 14:41 35.51287 -119.45198 35031 ft 490 kts 328°
2026-05-09 14:41 35.57183 -119.49395 35022 ft 489 kts 330°
2026-05-09 14:42 35.63196 -119.53287 35030 ft 487 kts 330°
2026-05-09 14:42 35.69154 -119.57204 35027 ft 485 kts 330°
2026-05-09 14:43 35.75117 -119.61099 35021 ft 484 kts 330°
2026-05-09 14:43 35.81015 -119.64976 35017 ft 483 kts 330°
2026-05-09 14:44 35.86935 -119.68864 35022 ft 482 kts 330°
2026-05-09 14:44 35.92866 -119.72771 35022 ft 482 kts 330°
2026-05-09 14:45 35.98772 -119.76665 35025 ft 482 kts 330°
2026-05-09 14:45 36.04701 -119.80583 35026 ft 481 kts 330°
2026-05-09 14:46 36.10574 -119.84470 35037 ft 481 kts 330°
2026-05-09 14:46 36.16489 -119.88391 35039 ft 481 kts 330°
2026-05-09 14:47 36.22390 -119.92310 35042 ft 481 kts 330°
2026-05-09 14:47 36.28273 -119.96224 35044 ft 480 kts 330°
2026-05-09 14:48 36.34160 -120.00147 35044 ft 480 kts 330°
2026-05-09 14:48 36.40054 -120.04081 35043 ft 480 kts 330°
2026-05-09 14:49 36.45895 -120.07987 35039 ft 480 kts 330°
2026-05-09 14:49 36.51765 -120.11919 35031 ft 479 kts 330°
2026-05-09 14:50 36.57633 -120.15857 35032 ft 479 kts 330°
2026-05-09 14:50 36.63498 -120.19799 35030 ft 479 kts 329°
2026-05-09 14:51 36.69361 -120.23747 35027 ft 478 kts 329°
2026-05-09 14:51 36.75222 -120.27701 35029 ft 478 kts 329°
2026-05-09 14:52 36.81071 -120.31653 35025 ft 478 kts 329°
2026-05-09 14:52 36.86877 -120.35584 35032 ft 477 kts 329°
2026-05-09 14:53 36.92755 -120.39569 35026 ft 477 kts 329°
2026-05-09 14:53 36.98546 -120.43503 35025 ft 477 kts 329°
2026-05-09 14:54 37.04375 -120.47469 35020 ft 477 kts 329°
2026-05-09 14:54 37.10204 -120.51443 35023 ft 476 kts 329°
2026-05-09 14:55 37.16033 -120.55423 35022 ft 476 kts 329°
2026-05-09 14:55 37.21880 -120.59334 35011 ft 477 kts 333°
2026-05-09 14:56 37.27974 -120.62640 35023 ft 477 kts 333°
2026-05-09 14:56 37.34007 -120.65993 35007 ft 477 kts 334°
2026-05-09 14:57 37.40092 -120.69316 35014 ft 476 kts 333°
2026-05-09 14:57 37.46179 -120.72688 35010 ft 476 kts 333°
2026-05-09 14:58 37.52220 -120.76014 35025 ft 477 kts 333°
2026-05-09 14:58 37.58292 -120.79379 35032 ft 476 kts 333°
2026-05-09 14:59 37.64366 -120.82743 35035 ft 476 kts 333°
2026-05-09 14:59 37.70431 -120.86111 35036 ft 476 kts 333°
2026-05-09 15:00 37.76514 -120.89495 35027 ft 476 kts 333°
2026-05-09 15:00 37.82569 -120.92869 35028 ft 476 kts 333°
2026-05-09 15:01 37.91670 -120.97952 35027 ft 476 kts 333°
2026-05-09 15:02 37.97685 -121.01319 35031 ft 476 kts 333°
2026-05-09 15:02 38.03747 -121.04718 35027 ft 476 kts 333°
2026-05-09 15:03 38.09806 -121.08123 35026 ft 476 kts 333°
2026-05-09 15:03 38.15859 -121.11529 35025 ft 476 kts 333°
2026-05-09 15:04 38.21927 -121.14951 35016 ft 476 kts 333°
2026-05-09 15:06 38.46083 -121.28634 35023 ft 475 kts 333°
2026-05-09 15:06 38.52166 -121.32095 35026 ft 475 kts 333°
2026-05-09 15:07 38.58178 -121.35522 35026 ft 475 kts 333°
2026-05-09 15:07 38.64218 -121.38973 35031 ft 475 kts 333°
2026-05-09 15:08 38.69267 -121.41756 35035 ft 475 kts 335°
2026-05-09 15:08 38.79437 -121.47147 35032 ft 475 kts 334°
2026-05-09 15:10 39.02849 -121.59620 35034 ft 475 kts 334°
2026-05-09 15:11 39.08963 -121.62892 35035 ft 475 kts 334°
2026-05-09 15:11 39.15081 -121.66173 35036 ft 475 kts 334°
2026-05-09 15:12 39.21126 -121.69421 35034 ft 475 kts 334°
2026-05-09 15:12 39.27216 -121.72700 35033 ft 474 kts 334°
2026-05-09 15:13 39.33314 -121.75988 35037 ft 474 kts 334°
2026-05-09 15:13 39.39411 -121.79283 35039 ft 474 kts 334°
2026-05-09 15:14 39.45495 -121.82576 35040 ft 474 kts 334°
2026-05-09 15:14 39.51558 -121.85866 35038 ft 473 kts 334°
2026-05-09 15:15 39.57608 -121.89153 35033 ft 473 kts 334°
2026-05-09 15:15 39.63681 -121.92460 35037 ft 473 kts 334°
2026-05-09 15:16 39.69743 -121.95766 35040 ft 473 kts 334°
2026-05-09 15:16 39.75809 -121.99083 35043 ft 472 kts 334°
2026-05-09 15:17 39.81873 -122.02403 35042 ft 472 kts 334°
2026-05-09 15:17 39.87921 -122.05721 35038 ft 472 kts 334°
2026-05-09 15:18 39.93972 -122.09047 35028 ft 472 kts 334°
2026-05-09 15:18 39.99987 -122.12360 35031 ft 472 kts 334°
2026-05-09 15:19 40.06024 -122.15692 35041 ft 471 kts 333°
2026-05-09 15:19 40.12075 -122.19037 35044 ft 471 kts 333°
2026-05-09 15:20 40.21109 -122.24045 35041 ft 471 kts 333°
2026-05-09 15:21 40.27140 -122.27395 35041 ft 471 kts 333°
2026-05-09 15:21 40.33178 -122.30756 35031 ft 471 kts 333°
2026-05-09 15:22 40.39086 -122.34049 35015 ft 454 kts 333°
2026-05-09 15:22 40.44826 -122.37259 34979 ft 444 kts 333°
2026-05-09 15:22 40.47677 -122.38857 34657 ft 447 kts 333°
2026-05-09 15:23 40.50557 -122.40472 34364 ft 454 kts 333°
2026-05-09 15:23 40.53482 -122.42119 34102 ft 462 kts 333°
2026-05-09 15:23 40.56453 -122.43820 33812 ft 466 kts 332°
2026-05-09 15:23 40.59434 -122.45533 33510 ft 468 kts 332°
2026-05-09 15:24 40.62429 -122.47241 33211 ft 469 kts 333°
2026-05-09 15:24 40.65428 -122.48948 32914 ft 470 kts 333°
2026-05-09 15:24 40.68438 -122.50671 32613 ft 471 kts 333°
2026-05-09 15:24 40.71452 -122.52404 32322 ft 472 kts 332°
2026-05-09 15:25 40.74454 -122.54126 32036 ft 472 kts 333°
2026-05-09 15:25 40.77477 -122.55859 31754 ft 473 kts 333°
2026-05-09 15:25 40.80451 -122.57566 31480 ft 472 kts 333°
2026-05-09 15:26 40.86480 -122.61040 30920 ft 472 kts 333°
2026-05-09 15:26 40.89497 -122.62777 30645 ft 472 kts 333°
2026-05-09 15:26 40.92517 -122.64518 30374 ft 472 kts 333°
2026-05-09 15:26 40.95520 -122.66254 30093 ft 472 kts 333°
2026-05-09 15:27 40.98523 -122.67991 29772 ft 471 kts 333°
2026-05-09 15:27 41.01528 -122.69729 29455 ft 471 kts 333°
2026-05-09 15:27 41.04534 -122.71469 29141 ft 470 kts 333°
2026-05-09 15:27 41.07528 -122.73206 28835 ft 470 kts 333°
2026-05-09 15:28 41.10519 -122.74943 28521 ft 470 kts 333°
2026-05-09 15:28 41.13510 -122.76682 28215 ft 470 kts 333°
2026-05-09 15:28 41.16478 -122.78407 27914 ft 471 kts 333°
2026-05-09 15:28 41.19514 -122.80173 27614 ft 471 kts 333°
2026-05-09 15:29 41.22477 -122.81900 27326 ft 471 kts 333°
2026-05-09 15:29 41.25487 -122.83658 27026 ft 471 kts 333°
2026-05-09 15:29 41.28509 -122.85421 26737 ft 471 kts 333°
2026-05-09 15:29 41.31479 -122.87157 26455 ft 470 kts 333°
2026-05-09 15:30 41.34472 -122.88908 26161 ft 470 kts 333°
2026-05-09 15:30 41.37471 -122.90665 25870 ft 469 kts 333°
2026-05-09 15:30 41.40455 -122.92414 25584 ft 468 kts 333°
2026-05-09 15:30 41.43442 -122.94168 25299 ft 467 kts 333°
2026-05-09 15:31 41.46417 -122.95916 25021 ft 466 kts 333°
2026-05-09 15:31 41.49374 -122.97654 24746 ft 465 kts 333°
2026-05-09 15:31 41.52333 -122.99396 24476 ft 464 kts 333°
2026-05-09 15:31 41.55296 -123.01142 24206 ft 463 kts 333°
2026-05-09 15:32 41.58199 -123.02855 23935 ft 462 kts 333°
2026-05-09 15:32 41.61179 -123.04614 23652 ft 460 kts 333°
2026-05-09 15:32 41.64065 -123.06319 23337 ft 459 kts 333°
2026-05-09 15:32 41.66987 -123.08048 23020 ft 458 kts 333°
2026-05-09 15:33 41.69898 -123.09772 22702 ft 457 kts 333°
2026-05-09 15:33 41.72814 -123.11501 22385 ft 456 kts 333°
2026-05-09 15:33 41.75710 -123.13219 22080 ft 454 kts 333°
2026-05-09 15:33 41.78598 -123.14934 21776 ft 453 kts 333°
2026-05-09 15:34 41.81476 -123.16646 21472 ft 452 kts 333°
2026-05-09 15:34 41.84342 -123.18352 21171 ft 451 kts 333°
2026-05-09 15:34 41.87207 -123.20058 20865 ft 450 kts 333°
2026-05-09 15:34 41.90068 -123.21764 20587 ft 448 kts 333°
2026-05-09 15:35 41.92919 -123.23466 20341 ft 447 kts 333°
2026-05-09 15:35 41.95717 -123.25138 20104 ft 445 kts 333°
2026-05-09 15:35 41.98549 -123.26832 19860 ft 444 kts 333°
2026-05-09 15:35 42.01359 -123.28513 19625 ft 442 kts 333°
2026-05-09 15:36 42.04169 -123.30197 19388 ft 440 kts 333°
2026-05-09 15:36 42.06958 -123.31870 19152 ft 439 kts 333°
2026-05-09 15:36 42.09739 -123.33541 18921 ft 437 kts 333°
2026-05-09 15:36 42.12510 -123.35205 18688 ft 436 kts 333°
2026-05-09 15:37 42.15280 -123.36871 18451 ft 434 kts 333°
2026-05-09 15:37 42.18037 -123.38531 18199 ft 433 kts 334°
2026-05-09 15:37 42.20747 -123.40164 17937 ft 431 kts 334°
2026-05-09 15:37 42.23405 -123.41994 17644 ft 427 kts 327°
2026-05-09 15:38 42.25925 -123.44086 17390 ft 425 kts 326°
2026-05-09 15:38 42.28435 -123.46184 17138 ft 424 kts 326°
2026-05-09 15:38 42.30958 -123.48232 16889 ft 423 kts 327°
2026-05-09 15:38 42.33492 -123.50276 16636 ft 422 kts 327°
2026-05-09 15:39 42.35994 -123.52333 16394 ft 420 kts 326°
2026-05-09 15:39 42.38475 -123.54390 16141 ft 419 kts 326°
2026-05-09 15:39 42.40969 -123.56439 15910 ft 419 kts 327°
2026-05-09 15:39 42.43466 -123.58480 15670 ft 418 kts 327°
2026-05-09 15:40 42.45954 -123.60526 15429 ft 418 kts 327°
2026-05-09 15:40 42.48430 -123.62572 15179 ft 416 kts 327°
2026-05-09 15:40 42.50899 -123.64611 14940 ft 414 kts 327°
2026-05-09 15:40 42.53330 -123.66614 14722 ft 413 kts 327°
2026-05-09 15:41 42.55792 -123.68647 14480 ft 413 kts 327°
2026-05-09 15:41 42.58238 -123.70671 14254 ft 412 kts 327°
2026-05-09 15:41 42.60695 -123.72705 14014 ft 413 kts 327°
2026-05-09 15:41 42.63139 -123.74730 13771 ft 412 kts 327°
2026-05-09 15:42 42.65592 -123.76765 13512 ft 411 kts 327°
2026-05-09 15:42 42.68027 -123.78785 13262 ft 410 kts 327°
2026-05-09 15:42 42.70461 -123.80806 12997 ft 409 kts 327°
2026-05-09 15:42 42.72896 -123.82832 12629 ft 410 kts 327°
2026-05-09 15:43 42.75311 -123.84842 12294 ft 402 kts 327°
2026-05-09 15:43 42.77668 -123.86802 11940 ft 394 kts 327°
2026-05-09 15:43 42.79986 -123.88734 11582 ft 387 kts 327°
2026-05-09 15:43 42.82269 -123.90642 11241 ft 382 kts 327°
2026-05-09 15:44 42.84516 -123.92521 10912 ft 378 kts 327°
2026-05-09 15:44 42.86755 -123.94392 10570 ft 375 kts 327°
2026-05-09 15:44 42.88953 -123.96230 10244 ft 372 kts 327°
2026-05-09 15:44 42.91131 -123.98055 9956 ft 363 kts 327°
2026-05-09 15:45 42.93221 -123.99806 9977 ft 341 kts 327°
2026-05-09 15:45 42.95191 -124.01457 9977 ft 325 kts 327°
2026-05-09 15:45 42.97080 -124.03043 9974 ft 312 kts 327°
2026-05-09 15:45 42.98891 -124.04565 9975 ft 301 kts 327°
2026-05-09 15:46 43.00678 -124.06069 9646 ft 302 kts 327°
2026-05-09 15:46 43.02473 -124.07580 9268 ft 303 kts 327°
2026-05-09 15:46 43.04269 -124.09090 8912 ft 303 kts 328°
2026-05-09 15:46 43.06064 -124.10601 8571 ft 302 kts 328°
2026-05-09 15:47 43.07847 -124.12106 8228 ft 301 kts 328°
2026-05-09 15:47 43.09614 -124.13597 7888 ft 297 kts 328°
2026-05-09 15:47 43.11352 -124.15063 7713 ft 289 kts 328°
2026-05-09 15:47 43.13036 -124.16489 7576 ft 280 kts 328°
2026-05-09 15:48 43.14458 -124.18271 7126 ft 282 kts 303°
2026-05-09 15:48 43.15111 -124.20790 6704 ft 283 kts 279°
2026-05-09 15:48 43.15372 -124.23448 6384 ft 281 kts 279°
2026-05-09 15:48 43.15792 -124.26061 6069 ft 280 kts 284°
2026-05-09 15:49 43.16346 -124.28618 5744 ft 280 kts 288°
2026-05-09 15:49 43.17038 -124.31123 5411 ft 281 kts 293°
2026-05-09 15:49 43.17854 -124.33527 5078 ft 281 kts 297°
2026-05-09 15:49 43.18804 -124.35866 4735 ft 281 kts 302°
2026-05-09 15:50 43.19874 -124.38099 4387 ft 281 kts 306°
2026-05-09 15:50 43.21057 -124.40216 4031 ft 276 kts 310°
2026-05-09 15:50 43.22318 -124.42162 3681 ft 271 kts 315°
2026-05-09 15:50 43.23657 -124.43957 3334 ft 266 kts 319°
2026-05-09 15:51 43.25061 -124.45595 2993 ft 262 kts 323°
2026-05-09 15:51 43.26494 -124.47049 2748 ft 248 kts 328°
2026-05-09 15:51 43.27878 -124.48273 2509 ft 232 kts 332°
2026-05-09 15:51 43.29228 -124.49253 2483 ft 207 kts 341°
2026-05-09 15:52 43.31762 -124.48908 2485 ft 179 kts 34°
2026-05-09 15:52 43.32587 -124.47679 2496 ft 174 kts 58°
2026-05-09 15:52 43.33164 -124.46242 2522 ft 171 kts 60°
2026-05-09 15:53 43.33756 -124.44823 2525 ft 170 kts 60°
2026-05-09 15:53 43.34350 -124.43390 2488 ft 176 kts 60°
2026-05-09 15:53 43.34962 -124.41913 2326 ft 184 kts 60°
2026-05-09 15:53 43.35611 -124.40351 2165 ft 190 kts 60°
2026-05-09 15:54 43.36268 -124.38747 2006 ft 195 kts 60°
2026-05-09 15:54 43.36935 -124.37116 1863 ft 197 kts 61°
2026-05-09 15:54 43.37618 -124.35445 1630 ft 204 kts 60°
2026-05-09 15:54 43.38317 -124.33750 1342 ft 197 kts 59°
2026-05-09 15:55 43.38939 -124.32231 1073 ft 169 kts 59°
2026-05-09 15:55 43.39490 -124.30887 837 ft 153 kts 59°
2026-05-09 15:55 43.39996 -124.29662 634 ft 143 kts 60°
2026-05-09 15:55 43.40462 -124.28522 441 ft 135 kts 60°
2026-05-09 15:56 43.40914 -124.27417 277 ft 132 kts 60°
2026-05-09 15:56 43.41363 -124.26320 106 ft 130 kts 60°
2026-05-09 15:56 43.41784 -124.25288 24 ft 112 kts 59°
2026-05-09 15:56 43.41988 -124.24804 23 ft 53 kts 59°
2026-05-09 15:57 43.42040 -124.24670 20 ft 12 kts 66°
2026-05-09 15:57 43.42108 -124.24519 20 ft 22 kts 60°
2026-05-09 15:57 43.42175 -124.24353 21 ft 17 kts 62°
2026-05-09 15:57 43.42149 -124.24300 20 ft 10 kts 151°
2026-05-09 15:58 43.42077 -124.24284 19 ft 9 kts 226°
2026-05-09 15:58 43.42038 -124.24376 21 ft 15 kts 241°
2026-05-09 15:58 43.42001 -124.24468 19 ft 11 kts 240°
2026-05-09 15:58 43.41952 -124.24588 22 ft 18 kts 240°
2026-05-09 15:59 43.41876 -124.24685 19 ft 15 kts 158°
2026-05-09 15:59 43.41807 -124.24630 21 ft 10 kts 157°
2026-05-09 15:59 43.41756 -124.24659 20 ft 7 kts 178°
2026-05-09 15:59 43.41739 -124.24671 22 ft 2 kts 244°
2026-05-09 16:00 43.41732 -124.24688 19 ft 0 kts 240°